Home   Weather   Mosman   Past weeks

Flag for Australia Past Weather in Mosman, New South Wales, Australia — Yesterday and Last 2 Weeks

Now
73 °F

Mild.


Feels Like: 73 °F
Forecast: 69 / 89 °F
Wind: N/A

Location: Sydney Regional Office

Current Time: Dec 5, 2016 at 1:15:31 am

Latest Report: Dec 5, 2016 at 12:00 am


Visibility: N/A

Pressure: 29.85 "Hg

Humidity: 80%

Dew Point: 66 °F

Location of MosmanLocation

Past Weather in Mosman — Graph

°F

Mosman Temperature Yesterday

Maximum temperature yesterday: 80 °F (at 12:00 pm)
Minimum temperature yesterday: 68 °F (at 4:00 am)
Average temperature yesterday: 73 °F

High & Low Weather Summary for the Past Weeks

 TemperatureHumidityPressure
High95 °F (Dec 2, 1:00 pm)85% (Nov 29, 1:00 am)30.16 "Hg (Nov 29, 1:00 am)
Low57 °F (Nov 24, 6:00 am)15% (Dec 2, 12:00 pm)29.68 "Hg (Dec 1, 6:00 pm)
Average72 °F64%29.92 "Hg
* Reported Nov 20 1:00 am — Dec 5 12:00 am, Mosman, Weather by CustomWeather, © 2016

Note: Actual official high and low records may vary slightly from our data, if they occured in-between our weather recording intervals... More about our weather records

Advertising

Mosman Weather History for the Previous 24 Hours

Scroll right to see more
 ConditionsComfort  
Time TempWeatherWind HumidityBarometerVisibility
12:00 am
Mon, Dec 5
73 °FMild.N/A80%29.85 "HgN/A
10:00 pm
Sun, Dec 4
73 °FMild.N/A77%29.90 "HgN/A
9:00 pm73 °FMild.N/A77%29.90 "HgN/A
7:00 pm74 °FMild.N/A73%29.89 "HgN/A
6:00 pm75 °FMild.N/A70%29.88 "HgN/A
4:00 pm78 °FWarm.N/A62%29.90 "HgN/A
3:00 pm77 °FWarm.N/A60%29.92 "HgN/A
1:00 pm80 °FWarm.N/A54%29.95 "HgN/A
12:00 pm80 °FWarm.N/A53%29.96 "HgN/A
10:00 am76 °FMild.N/A58%30.00 "HgN/A
9:00 am73 °FMild.N/A64%30.00 "HgN/A
7:00 am68 °FMild.N/A80%29.99 "HgN/A
6:00 am68 °FMild.N/A82%29.99 "HgN/A
4:00 am68 °FMild.N/A78%29.98 "HgN/A
3:00 am68 °FMild.N/A77%29.98 "HgN/A
1:00 am69 °FMild.N/A76%30.01 "HgN/A
Weather by CustomWeather, © 2016

See weather overviewHow to use our weather pages